Location: Chiroubles
(46.1812°N, 4.6660°E)
Time: 02:17:23
(UTC+00:00)

USA 238 - Pass Details

Date: 15 August 2020
Orbit: 1006 x 1206 km, 63.4° (Epoch: 17 September)

Event Time Altitude Azimuth Distance (km) Brightness Sun altitude
Rises 20:47:26 0° 236° (SW) 3,746 6.7 -18.0°
Reaches altitude 10° 20:50:04 10° 241° (WSW) 2,813 6.1 -18.3°
Maximum altitude 20:56:31 53° 318° (NW) 1,281 4.5 -19.1°
Drops below altitude 10° 21:03:18 10° 34° (NE) 2,947 6.2 -19.9°
Sets 21:06:08 0° 39° (NE) 3,938 6.8 -20.2°
